This is the latest recevied weather packets stored in our database for station/object VE9LJW. If no packets are shown the sender has not sent any weather packets the latest 1 day(s).
| Time | Temp. | Humidity | Pressure | Rain* | Wind** | Luminosity | Snow |
|---|---|---|---|---|---|---|---|
| 1836274809 | 11.11° C | 74% | 1016 hPa | 0 mm | 0 m/s | 0 W/m² | - |
| 1836274506 | 11.67° C | 73% | 1015.9 hPa | 0 mm | 0.89 m/s, 127° | 0 W/m² | - |
| 1836274360 | 11.11° C | 73% | 1016.1 hPa | 0 mm | 0.45 m/s, 180° | 0 W/m² | - |
| 1836274204 | 11.67° C | 71% | 1015.8 hPa | 0 mm | 0 m/s | 0 W/m² | - |
| 1836273898 | 12.22° C | 70% | 1015.6 hPa | 0 mm | 0.89 m/s, 99° | 0 W/m² | - |
| 1778049073 | 12.22° C | 97% | 1006.3 hPa | 0 mm | 0.89 m/s, 163° | 0 W/m² | - |
| 1778048772 | 12.22° C | 97% | 1006.4 hPa | 1.27 mm | 0.89 m/s, 191° | 0 W/m² | - |
| 1778048469 | 12.22° C | 97% | 1006.4 hPa | 1.27 mm | 1.34 m/s, 238° | 0 W/m² | - |
| 1778048164 | 12.78° C | 96% | 1006.2 hPa | 0 mm | 0.89 m/s, 290° | 0 W/m² | - |
| 1778047862 | 12.78° C | 95% | 1005.8 hPa | 0 mm | 0 m/s | 0 W/m² | - |
| 1778047574 | 12.78° C | 94% | 1006 hPa | 0 mm | 1.79 m/s, 182° | 0 W/m² | - |
| 1778047257 | 12.78° C | 93% | 1006.2 hPa | 0 mm | 1.79 m/s, 240° | 0 W/m² | - |
| 1778046954 | 12.78° C | 92% | 1006.2 hPa | 0 mm | 1.79 m/s, 230° | 0 W/m² | - |
| 1778046651 | 12.78° C | 92% | 1006.5 hPa | 0 mm | 1.79 m/s, 190° | 0 W/m² | - |
| 1778046348 | 12.78° C | 92% | 1006.4 hPa | 0 mm | 1.79 m/s, 237° | 0 W/m² | - |
| 1778046044 | 12.78° C | 92% | 1006.6 hPa | 0 mm | 0.89 m/s, 208° | 0 W/m² | - |
| 1778045742 | 12.78° C | 92% | 1006.5 hPa | 0 mm | 2.24 m/s, 230° | 0 W/m² | - |
| 1778045440 | 13.33° C | 91% | 1006.5 hPa | 0 mm | 2.24 m/s, 202° | 0 W/m² | - |
| 1778045138 | 13.33° C | 90% | 1006.7 hPa | 0 mm | 1.79 m/s, 190° | 0 W/m² | - |
| 1778044836 | 13.33° C | 90% | 1006.5 hPa | 0 mm | 1.79 m/s, 214° | 0 W/m² | - |
| 1778044532 | 13.33° C | 90% | 1006.7 hPa | 0 mm | 1.34 m/s, 222° | 0 W/m² | - |
| 1778044229 | 13.33° C | 90% | 1006.6 hPa | 0 mm | 2.68 m/s, 214° | 0 W/m² | - |
| 1778043927 | 13.33° C | 90% | 1006.6 hPa | 0 mm | 2.68 m/s, 196° | 0 W/m² | - |
| 1778043624 | 13.33° C | 89% | 1006.9 hPa | 0 mm | 2.24 m/s, 190° | 0 W/m² | - |
| 1778043321 | 13.33° C | 89% | 1006.7 hPa | 0 mm | 2.68 m/s, 217° | 0 W/m² | - |
* Rain latest hour (hover to see other rain measurements)
** Current wind speed in m/s (hover to see current wind gust speed)